Regional Weather Roundup
Issued by NWS Northern Indiana

Home | Current Version | Previous Version | Graphics & Text | Print | Product List | Glossary On
Versions: 1 2 3 4 5 6 7 8 9 10 11 12 13 14 15 16 17 18 19 20 21 22 23 24 25 26 27 28 29 30 31 32 33 34 35 36 37 38 39 40 41 42 43 44 45 46 47 48 49 50
000
ASUS43 KIWX 020900
RWRIWX

KIWX WEATHER ROUNDUP
NATIONAL WEATHER SERVICE NORTHERN INDIANA
500 AM EDT SUN AUG 02 2015

NOTE: "FAIR" INDICATES FEW OR NO CLOUDS BELOW 12,000 FEET WITH NO
SIGNIFICANT WEATHER AND/OR OBSTRUCTIONS TO VISIBILITY.

* THESE STATIONS ARE NOT UNDER NWS QUALITY CONTROL. THEY ALSO MAY NOT
  REPORT WEATHER SUCH AS PRECIPITATION OR FOG.

INZ001>027-021000-
NORTHERN INDIANA

CITY           SKY/WX    TMP DP  RH WIND       PRES   REMARKS
SOUTH BEND     CLEAR     68  63  84 SW6       29.91S
GOSHEN         CLEAR     65  62  90 SW7       29.91S
ANGOLA*        CLEAR     66  63  88 VRB3      29.91S
FORT WAYNE     CLEAR     65  61  87 SW8       29.93S

$$
INZ028>050-021000-
CENTRAL INDIANA

CITY           SKY/WX    TMP DP  RH WIND       PRES   REMARKS
LAFAYETTE      CLEAR     63  61  93 CALM      29.94S
KOKOMO*        CLEAR     66  57  72 SW8       29.94F
MUNCIE*        CLEAR     65  58  78 SW7       29.96F
INDIANAPOLIS   PTCLDY    65  58  78 SW6       29.95F

$$
MIZ043>046-050>051-056>058-064>065-071>073-077>080-021000-
SOUTHWEST LOWER MICHIGAN

CITY           SKY/WX    TMP DP  RH WIND       PRES   REMARKS
BATTLE CREEK   CLEAR     65  60  84 SW5       29.89S
BENTON HARBOR  CLEAR     73  66  78 SW12      29.87F
COLDWATER*     CLEAR     63  61  91 SW3       29.90S
HILLSDALE*     CLEAR     66  64  90 W3        29.91S
HOLLAND        CLEAR     66  62  87 SW3       29.86S
GRAND RAPIDS   CLEAR     65  58  78 S6        29.86S
KALAMAZOO      CLEAR     66  61  84 SW7       29.89R
STURGIS*       CLEAR     63  61  94 SW3       29.90R
THREE RIVERS*  FAIR      64  61  91 SW3       29.90S

$$
OHZ001>008-015>018-024>025-021000-
NORTHWEST OHIO

CITY           SKY/WX    TMP DP  RH WIND       PRES   REMARKS
DEFIANCE       CLEAR     66  60  81 S5        29.91S
FINDLAY        CLEAR     68  59  73 SW8       29.91F
TOLEDO EXPRESS CLEAR     67  59  75 SW8       29.89F
TOLEDO METCALF CLEAR     66  59  78 SW6       29.90F
LIMA           CLEAR     67  58  72 SW7       29.94F

$$
AND FOR LAKE MICHIGAN COASTAL AND OPEN LAKE BUOY OBSERVATIONS

STATION/POSITION TEMP    WIND        PRES    VSBY  WAVE
                 AIR SEA DIR/SP/G                  HT/PER
                 (F)     (DEG/KT/KT) (MB)    (MI)  (FT/S)
CALUMET HARBOR    74     210/  5/  6   N/A
MICHIGAN CITY     72     200/ 12/ 13   N/A
BURNS HARBOR      73     230/ 11/ 13 1012.9R
SAINT JOSEPH      75     190/ 13/ 16 1012.9R
4 MI NW BRIDGMAN  74 73  260/ 12/ 16   N/A           2/ 4
MICHIGAN CITY     74 74  240/ 14/ 16   N/A           2/ 3

$$
&&



USA.gov is the U.S. government's official web portal to all federal, state and local government web resources and services.